Location: ?????
(31.8092°N, 35.2590°E)
Time: 19:50:17
(UTC+00:00)

Cosmos 2221 - Pass Details

Date: 20 June 2021
Orbit: 591 x 616 km, 82.5° (Epoch: 02 August)

Event Time Altitude Azimuth Distance (km) Brightness Sun altitude
Rises 22:59:48 0° 353° (N) 2,844 6.8 -31.6°
Reaches altitude 10° 23:02:01 10° 353° (N) 1,935 5.8 -31.4°
Enters shadow 23:03:56 26° 352° (N) 1,182 4.4 -31.3°
